| time (UTC) | temp F | wind direction | speed MPH | gust MPH | rain 1hr in | rain 24hr in | rain mn in | humidity % | barometer mb |
| 20260831010644 | 73 | 229 | 2.0 | 4.0 | 0.00 | 0.00 | 0.00 | 91 | 1024.7 |
| 20260831005745 | 74 | 240 | 2.0 | 5.0 | 0.00 | 0.00 | 0.00 | 90 | 1024.6 |
| 20260831004844 | 74 | 219 | 3.0 | 9.0 | 0.00 | 0.00 | 0.00 | 89 | 1024.5 |
| 20260831003944 | 74 | 223 | 3.0 | 7.0 | 0.00 | 0.00 | 0.00 | 89 | 1024.4 |
| 20260831002145 | 74 | 218 | 4.0 | 9.0 | 0.00 | 0.00 | 0.00 | 89 | 1024.2 |
| 20260831001244 | 74 | 218 | 5.0 | 12.0 | 0.00 | 0.00 | 0.00 | 88 | 1024.1 |
| 20260831000344 | 74 | 223 | 3.0 | 7.0 | 0.00 | 0.00 | 0.00 | 88 | 1024.1 |
| 20260830235444 | 74 | 217 | 2.0 | 7.0 | 0.00 | 0.00 | 0.00 | 88 | 1024.0 |
| 20260830234544 | 74 | 223 | 4.0 | 10.0 | 0.00 | 0.00 | 0.00 | 87 | 1024.0 |
| 20260830233645 | 74 | 213 | 5.0 | 12.0 | 0.00 | 0.00 | 0.00 | 87 | 1023.8 |
| 20260830231845 | 74 | 218 | 5.0 | 11.0 | 0.00 | 0.00 | 0.00 | 87 | 1023.9 |
| 20260830230944 | 74 | 214 | 4.0 | 12.0 | 0.00 | 0.00 | 0.00 | 86 | 1024.0 |
| 20260830230045 | 74 | 216 | 3.0 | 12.0 | 0.00 | 0.00 | 0.00 | 86 | 1024.0 |
| 20260830225144 | 74 | 218 | 4.0 | 12.0 | 0.00 | 0.00 | 0.00 | 85 | 1023.9 |
| 20260830224244 | 74 | 211 | 5.0 | 11.0 | 0.00 | 0.00 | 0.00 | 85 | 1024.0 |
| 20260830223344 | 74 | 216 | 3.0 | 9.0 | 0.00 | 0.00 | 0.00 | 85 | 1024.1 |
| 20260830221544 | 75 | 212 | 4.0 | 10.0 | 0.00 | 0.00 | 0.00 | 84 | 1024.3 |
| 20260830215744 | 75 | 199 | 5.0 | 13.0 | 0.00 | 0.00 | 0.00 | 83 | 1024.4 |
| 20260830214845 | 75 | 205 | 5.0 | 12.0 | 0.00 | 0.00 | 0.00 | 82 | 1024.2 |
| 20260830213944 | 75 | 218 | 4.0 | 11.0 | 0.00 | 0.00 | 0.00 | 81 | 1024.2 |
| 20260830213044 | 75 | 192 | 4.0 | 10.0 | 0.00 | 0.00 | 0.00 | 81 | 1024.1 |
| 20260830212144 | 75 | 204 | 5.0 | 12.0 | 0.00 | 0.00 | 0.00 | 81 | 1024.4 |
| 20260830211244 | 75 | 204 | 4.0 | 8.0 | 0.00 | 0.00 | 0.00 | 81 | 1024.4 |
| 20260830205444 | 76 | 207 | 5.0 | 10.0 | 0.00 | 0.00 | 0.00 | 79 | 1024.5 |
| 20260830203645 | 75 | 218 | 6.0 | 14.0 | 0.00 | 0.00 | 0.00 | 78 | 1024.5 |
| 20260830202744 | 76 | 206 | 6.0 | 12.0 | 0.00 | 0.00 | 0.00 | 79 | 1024.6 |
| 20260830201844 | 76 | 218 | 6.0 | 15.0 | 0.00 | 0.00 | 0.00 | 79 | 1024.7 |
| 20260830200944 | 76 | 208 | 5.0 | 15.0 | 0.00 | 0.00 | 0.00 | 77 | 1024.7 |
| 20260830200044 | 77 | 216 | 6.0 | 14.0 | 0.00 | 0.00 | 0.00 | 74 | 1024.7 |
| 20260830195144 | 77 | 211 | 5.0 | 12.0 | 0.00 | 0.00 | 0.00 | 74 | 1024.8 |
| 20260830194244 | 78 | 214 | 4.0 | 12.0 | 0.00 | 0.00 | 0.00 | 73 | 1024.7 |
| 20260830193345 | 78 | 215 | 3.0 | 11.0 | 0.00 | 0.00 | 0.00 | 74 | 1025.0 |
| 20260830192444 | 78 | 223 | 6.0 | 14.0 | 0.00 | 0.00 | 0.00 | 74 | 1025.1 |
| 20260830191544 | 77 | 229 | 7.0 | 14.0 | 0.00 | 0.00 | 0.00 | 72 | 1025.3 |
| 20260830190644 | 77 | 227 | 7.0 | 13.0 | 0.00 | 0.00 | 0.00 | 72 | 1025.5 |
| 20260830185744 | 78 | 229 | 5.0 | 13.0 | 0.00 | 0.00 | 0.00 | 69 | 1025.4 |
| 20260830184844 | 78 | 219 | 6.0 | 13.0 | 0.00 | 0.00 | 0.00 | 70 | 1025.6 |
| 20260830183944 | 77 | 235 | 3.0 | 11.0 | 0.00 | 0.00 | 0.00 | 70 | 1025.6 |
| 20260830183044 | 77 | 200 | 4.0 | 10.0 | 0.00 | 0.00 | 0.00 | 71 | 1025.7 |
| 20260830182144 | 77 | 213 | 5.0 | 11.0 | 0.00 | 0.00 | 0.00 | 70 | 1025.9 |
| 20260830181245 | 77 | 230 | 5.0 | 10.0 | 0.00 | 0.00 | 0.00 | 68 | 1026.1 |
| 20260830180343 | 77 | 240 | 5.0 | 11.0 | 0.00 | 0.00 | 0.00 | 66 | 1026.2 |
| 20260830175445 | 78 | 223 | 7.0 | 15.0 | 0.00 | 0.00 | 0.00 | 63 | 1026.1 |
| 20260830173644 | 78 | 205 | 7.0 | 16.0 | 0.00 | 0.00 | 0.00 | 61 | 1026.1 |
| 20260830172744 | 78 | 197 | 5.0 | 12.0 | 0.00 | 0.00 | 0.00 | 65 | 1026.2 |
| 20260830171844 | 78 | 220 | 6.0 | 12.0 | 0.00 | 0.00 | 0.00 | 62 | 1026.2 |
| 20260830165144 | 78 | 221 | 7.0 | 17.0 | 0.00 | 0.00 | 0.00 | 61 | 1026.6 |
| 20260830164244 | 79 | 221 | 5.0 | 14.0 | 0.00 | 0.00 | 0.00 | 61 | 1026.7 |
| 20260830163344 | 79 | 232 | 5.0 | 11.0 | 0.00 | 0.00 | 0.00 | 59 | 1026.8 |
| 20260830162445 | 79 | 232 | 4.0 | 11.0 | 0.00 | 0.00 | 0.00 | 58 | 1026.8 |
| 20260830161544 | 78 | 253 | 4.0 | 11.0 | 0.00 | 0.00 | 0.00 | 55 | 1026.8 |
| 20260830155744 | 78 | 238 | 5.0 | 11.0 | 0.00 | 0.00 | 0.00 | 54 | 1026.8 |
| 20260830154844 | 78 | 226 | 6.0 | 12.0 | 0.00 | 0.00 | 0.00 | 52 | 1027.1 |
| 20260830153944 | 78 | 245 | 6.0 | 13.0 | 0.00 | 0.00 | 0.00 | 54 | 1027.3 |
| 20260830153044 | 78 | 247 | 5.0 | 10.0 | 0.00 | 0.00 | 0.00 | 55 | 1027.4 |
| 20260830151244 | 77 | 233 | 6.0 | 13.0 | 0.00 | 0.00 | 0.00 | 57 | 1027.4 |
| 20260830150344 | 77 | 217 | 5.0 | 13.0 | 0.00 | 0.00 | 0.00 | 55 | 1027.5 |
| 20260830144544 | 76 | 214 | 5.0 | 11.0 | 0.00 | 0.00 | 0.00 | 62 | 1027.7 |
| 20260830143644 | 76 | 222 | 5.0 | 11.0 | 0.00 | 0.00 | 0.00 | 63 | 1027.8 |
| 20260830142744 | 75 | 234 | 5.0 | 10.0 | 0.00 | 0.00 | 0.00 | 63 | 1027.8 |
| 20260830140944 | 75 | 209 | 4.0 | 11.0 | 0.00 | 0.00 | 0.00 | 66 | 1028.1 |
| 20260830140044 | 74 | 236 | 3.0 | 9.0 | 0.00 | 0.00 | 0.00 | 67 | 1028.2 |
| 20260830135144 | 74 | 238 | 3.0 | 9.0 | 0.00 | 0.00 | 0.00 | 69 | 1028.3 |
| 20260830134243 | 73 | 231 | 4.0 | 9.0 | 0.00 | 0.00 | 0.00 | 68 | 1028.3 |
| 20260830131544 | 72 | 213 | 3.0 | 6.0 | 0.00 | 0.00 | 0.00 | 74 | 1028.5 |
| 20260830130644 | 71 | 230 | 2.0 | 6.0 | 0.00 | 0.00 | 0.00 | 77 | 1028.5 |
| 20260830125744 | 70 | 227 | 1.0 | 5.0 | 0.00 | 0.00 | 0.00 | 81 | 1028.6 |
| 20260830124844 | 69 | 222 | 1.0 | 3.0 | 0.00 | 0.00 | 0.00 | 84 | 1028.7 |
| 20260830123943 | 69 | 217 | 1.0 | 4.0 | 0.00 | 0.00 | 0.00 | 83 | 1028.7 |
| 20260830122144 | 69 | 218 | 0.0 | 1.0 | 0.00 | 0.00 | 0.00 | 85 | 1028.8 |
| 20260830115444 | 67 | 234 | 1.0 | 2.0 | 0.00 | 0.00 | 0.00 | 89 | 1028.7 |
| 20260830114544 | 65 | 230 | 0.0 | 2.0 | 0.00 | 0.00 | 0.00 | 90 | 1028.8 |
| 20260830113644 | 65 | 246 | 0.0 | 2.0 | 0.00 | 0.00 | 0.00 | 92 | 1028.8 |
| 20260830112744 | 63 | 0 | 0.0 | 0.0 | 0.00 | 0.00 | 0.00 | 93 | 1028.8 |
| 20260830111844 | 63 | 209 | 0.0 | 2.0 | 0.00 | 0.00 | 0.00 | 93 | 1028.7 |
| 20260830110944 | 62 | 0 | 0.0 | 0.0 | 0.00 | 0.00 | 0.00 | 93 | 1028.6 |
| 20260830110044 | 62 | 0 | 0.0 | 0.0 | 0.00 | 0.00 | 0.00 | 93 | 1028.5 |
| 20260830105144 | 62 | 0 | 0.0 | 0.0 | 0.00 | 0.00 | 0.00 | 93 | 1028.5 |
| 20260830104244 | 62 | 0 | 0.0 | 0.0 | 0.00 | 0.00 | 0.00 | 93 | 1028.5 |
| 20260830103344 | 62 | 0 | 0.0 | 0.0 | 0.00 | 0.00 | 0.00 | 93 | 1028.5 |
| 20260830101543 | 62 | 0 | 0.0 | 0.0 | 0.00 | 0.00 | 0.00 | 93 | 1028.4 |
| 20260830095744 | 61 | 239 | 0.0 | 2.0 | 0.00 | 0.00 | 0.00 | 93 | 1028.5 |
| 20260830094844 | 61 | 0 | 0.0 | 0.0 | 0.00 | 0.00 | 0.00 | 93 | 1028.5 |
| 20260830093943 | 62 | 0 | 0.0 | 0.0 | 0.00 | 0.00 | 0.00 | 93 | 1028.5 |
| 20260830093044 | 62 | 0 | 0.0 | 0.0 | 0.00 | 0.00 | 0.00 | 92 | 1028.6 |
| 20260830092144 | 62 | 0 | 0.0 | 0.0 | 0.00 | 0.00 | 0.00 | 92 | 1028.7 |
| 20260830090343 | 62 | 0 | 0.0 | 0.0 | 0.00 | 0.00 | 0.00 | 92 | 1028.6 |
| 20260830085444 | 62 | 252 | 0.0 | 1.0 | 0.00 | 0.00 | 0.00 | 92 | 1028.5 |
| 20260830084543 | 62 | 259 | 1.0 | 2.0 | 0.00 | 0.00 | 0.00 | 92 | 1028.6 |
| 20260830083644 | 62 | 262 | 1.0 | 3.0 | 0.00 | 0.00 | 0.00 | 93 | 1028.8 |
| 20260830082743 | 62 | 257 | 0.0 | 3.0 | 0.00 | 0.00 | 0.00 | 93 | 1028.7 |
| 20260830081843 | 62 | 267 | 0.0 | 1.0 | 0.00 | 0.00 | 0.00 | 94 | 1028.7 |
| 20260830080043 | 61 | 276 | 0.0 | 2.0 | 0.00 | 0.00 | 0.00 | 95 | 1028.8 |
| 20260830075144 | 60 | 0 | 0.0 | 0.0 | 0.00 | 0.00 | 0.00 | 95 | 1028.7 |
| 20260830073343 | 59 | 0 | 0.0 | 0.0 | 0.00 | 0.00 | 0.00 | 94 | 1028.9 |
| 20260830072444 | 59 | 0 | 0.0 | 0.0 | 0.00 | 0.00 | 0.00 | 94 | 1028.9 |
| 20260830071543 | 59 | 0 | 0.0 | 0.0 | 0.00 | 0.00 | 0.00 | 94 | 1029.0 |
| 20260830070643 | 59 | 0 | 0.0 | 0.0 | 0.00 | 0.00 | 0.00 | 94 | 1029.0 |
| 20260830065744 | 59 | 0 | 0.0 | 0.0 | 0.00 | 0.00 | 0.00 | 94 | 1029.0 |
| 20260830063944 | 59 | 0 | 0.0 | 0.0 | 0.00 | 0.00 | 0.00 | 94 | 1028.9 |
| 20260830062143 | 59 | 0 | 0.0 | 0.0 | 0.00 | 0.00 | 0.00 | 93 | 1028.8 |
| 20260830060343 | 59 | 0 | 0.0 | 0.0 | 0.00 | 0.00 | 0.00 | 93 | 1028.6 |
| 20260830055445 | 59 | 0 | 0.0 | 0.0 | 0.00 | 0.00 | 0.00 | 92 | 1028.5 |
| 20260830054545 | 59 | 0 | 0.0 | 0.0 | 0.00 | 0.00 | 0.00 | 92 | 1028.7 |
| 20260830053643 | 59 | 0 | 0.0 | 0.0 | 0.00 | 0.00 | 0.00 | 92 | 1028.8 |
| 20260830052743 | 59 | 0 | 0.0 | 0.0 | 0.00 | 0.00 | 0.00 | 92 | 1028.6 |
| 20260830051843 | 59 | 0 | 0.0 | 0.0 | 0.00 | 0.00 | 0.00 | 92 | 1028.7 |
| 20260830050044 | 59 | 0 | 0.0 | 0.0 | 0.00 | 0.00 | 0.00 | 92 | 1028.7 |
| 20260830044244 | 59 | 0 | 0.0 | 0.0 | 0.00 | 0.00 | 0.00 | 91 | 1028.6 |
| 20260830043344 | 59 | 0 | 0.0 | 0.0 | 0.00 | 0.00 | 0.00 | 91 | 1028.6 |
| 20260830042443 | 59 | 0 | 0.0 | 0.0 | 0.00 | 0.00 | 0.00 | 90 | 1028.7 |
| 20260830041544 | 59 | 0 | 0.0 | 0.0 | 0.00 | 0.00 | 0.00 | 90 | 1028.7 |
| 20260830040643 | 59 | 0 | 0.0 | 0.0 | 0.00 | 0.00 | 0.00 | 89 | 1028.6 |
| 20260830035744 | 60 | 0 | 0.0 | 0.0 | 0.00 | 0.00 | 0.00 | 88 | 1028.6 |
| 20260830034843 | 60 | 0 | 0.0 | 0.0 | 0.00 | 0.00 | 0.00 | 88 | 1028.7 |
| 20260830033943 | 61 | 0 | 0.0 | 0.0 | 0.00 | 0.00 | 0.00 | 88 | 1028.5 |
| 20260830033043 | 61 | 0 | 0.0 | 0.0 | 0.00 | 0.00 | 0.00 | 88 | 1028.6 |
| 20260830031243 | 60 | 0 | 0.0 | 0.0 | 0.00 | 0.00 | 0.00 | 90 | 1028.5 |
| 20260830030344 | 60 | 0 | 0.0 | 0.0 | 0.00 | 0.00 | 0.00 | 90 | 1028.5 |
| 20260830025443 | 60 | 0 | 0.0 | 0.0 | 0.00 | 0.00 | 0.00 | 91 | 1028.6 |
| 20260830024543 | 59 | 0 | 0.0 | 0.0 | 0.00 | 0.00 | 0.00 | 90 | 1028.5 |
| 20260830023643 | 59 | 0 | 0.0 | 0.0 | 0.00 | 0.00 | 0.00 | 91 | 1028.6 |
| 20260830022743 | 59 | 0 | 0.0 | 0.0 | 0.00 | 0.00 | 0.00 | 90 | 1028.5 |
| 20260830021843 | 59 | 0 | 0.0 | 0.0 | 0.00 | 0.00 | 0.00 | 90 | 1028.6 |
| 20260830020943 | 59 | 0 | 0.0 | 0.0 | 0.00 | 0.00 | 0.00 | 89 | 1028.7 |
| 20260830020044 | 60 | 0 | 0.0 | 0.0 | 0.00 | 0.00 | 0.00 | 88 | 1028.5 |
| 20260830015144 | 60 | 0 | 0.0 | 0.0 | 0.00 | 0.00 | 0.00 | 88 | 1028.5 |
| 20260830014244 | 61 | 0 | 0.0 | 0.0 | 0.00 | 0.00 | 0.00 | 87 | 1028.4 |
| 20260830012443 | 61 | 0 | 0.0 | 0.0 | 0.00 | 0.00 | 0.00 | 86 | 1028.4 |